Location: Caltech
(34.1382°N, 118.1253°W)
Time: 11:44:55
(UTC-08:00)

Oscar 11 - Visible Passes

Search period start: 26 February 2017 00:00
Search period end: 08 March 2017 00:00
Orbit: 614 x 626 km, 97.7° (Epoch: 26 February)

Date Brightness Start Highest point End Pass type
(mag) Time Alt. Az. Time Alt. Az. Time Alt. Az.
28 Feb 9.5 19:29:10 11° NNE 19:29:10 11° NNE 19:29:21 10° NNE visible
01 Mar 9.4 19:46:33 13° N 19:46:33 13° N 19:47:06 10° N visible
02 Mar 9.4 20:03:56 15° N 20:03:56 15° N 20:04:39 10° N visible
03 Mar 9.6 20:21:19 15° NNW 20:21:19 15° NNW 20:22:02 10° NNW visible
04 Mar 9.8 20:38:42 13° NNW 20:38:42 13° NNW 20:39:15 10° NNW visible
05 Mar 9.2 19:18:56 13° NNE 19:18:56 13° NNE 19:19:37 10° NNE visible
05 Mar 10.1 20:56:06 11° NW 20:56:06 11° NW 20:56:15 10° NW visible
06 Mar 9.0 19:36:20 17° NNE 19:36:20 17° NNE 19:37:31 10° NNE visible
07 Mar 8.9 19:53:43 20° N 19:53:43 20° N 19:55:10 10° N visible
